Hourly Data Report for December 20, 2010

IQALUIT CLIMATE
NUNAVUT

63°44'50.000" N
68°32'40.000" W
33.50 m
2402592
71321
XFB

Download Data

Hourly Data (December 2010)
Hourly Data Report for December 20, 2010
TIME
LST
Temp Definition
°C
Dew Point Definition
°C
Rel Hum Definition
%
Precip. Amount Definition
mm

Wind Dir Definition
10's deg

Wind Spd Definition
km/h
Visibility Definition
km
Stn Press Definition
kPa
Hmdx Definition


Wind Chill Definition


Weather Definition


00:00 -0.6 -0.9 98   15 6   103.51   -3 LegendNANA
01:00 -1.0 -1.1 99   14 4   103.52   -2 LegendNANA
02:00 -0.9 -0.9 100   15 7   103.52   -3 LegendNANA
03:00 -1.2 -1.2 100   21 6   103.53   -3 LegendNANA
04:00 -2.0 -2.0 100   26 7   103.53   -5 LegendNANA
05:00 -2.3 -2.3 100   26 4   103.52   -4 LegendNANA
06:00 -2.2 -2.2 100   1 4   103.49   -4 LegendNANA
07:00 -2.0 -2.0 100     0   103.48     LegendNANA
08:00 -2.1 -2.1 100   23 6   103.52   -4 LegendNANA
09:00 -2.3 -2.3 100   25 6   103.53   -5 LegendNANA
10:00 -2.5 -2.5 100   31 7   103.52   -5 LegendNANA
11:00 -2.7 -2.7 100   31 9   103.55   -6 LegendNANA
12:00 -2.8 -2.8 100   33 11   103.51   -7 LegendNANA
13:00 -2.4 -2.4 100   32 7   103.48   -5 LegendNANA
14:00 -2.4 -2.4 100   32 9   103.51   -6 LegendNANA
15:00 -2.1 -2.1 100   34 7   103.53   -5 LegendNANA
16:00 -2.1 -2.5 97   1 7   103.58   -5 LegendNANA
17:00 -2.6 -3.0 97   30 4   103.59   -4 LegendNANA
18:00 -2.8 -3.5 95   29 6   103.59   -5 LegendNANA
19:00 -5.2 -6.4 91   32 11   103.57   -10 LegendNANA
20:00 -6.7 -7.7 93   33 7   103.58   -10 LegendNANA
21:00 -7.1 -8.0 93   1 6   103.56   -10 LegendNANA
22:00 -7.0 -7.8 94   33 6   103.55   -10 LegendNANA
23:00 -8.0 -8.8 94   35 6   103.54   -11 LegendNANA

Notes on Data Quality.

Legend

  • E = Estimated
  • M = Missing
  • NA = Not Available*
  • [empty] = Indicates an unobserved value
Date modified: